Temp
-15 -15 -15 -15 -15 -15 -15 -15 -14 -14 -15 -15 -15 -14 -14 -14 -14 -14 -14 -14 -14 -14 -14 -14 -14 -14 -14 -14 -14 -14 -14 -14 -14 -14 -14 -14 -14 -14 -14 -14 -14 -14
-15 -15 -15 -15 -15 -15 -15 -15 -15 -15 -15 -15 -15 -15 -14 -14 -14 -14 -14 -14 -14 -14 -14 -14 -14 -14 -14 -15 -15 -15 -15 -15 -15 -15 -15 -15 -15 -15 -15 -15 -15 -15
-15 -15 -15 -15 -15 -15 -15 -15 -15 -15 -15 -15 -15 -15 -14 -14 -14 -14 -14 -14 -14 -14 -14 -15 -15 -15 -15 -15 -15 -15 -15 -15 -15 -15 -15 -15 -15 -15 -15 -15 -15 -15
-15 -15 -15 -15 -15 -15 -15 -15 -15 -15 -15 -15 -15 -15 -15 -14 -14 -14 -14 -14 -14 -14 -14 -15 -15 -15 -15 -16 -16 -16 -15 -15 -15 -15 -15 -15 -15 -15 -15 -15 -15 -15
-15 -15 -15 -15 -15 -15 -15 -15 -15 -15 -15 -15 -15 -15 -15 -15 -14 -14 -14 -14 -14 -14 -15 -15 -15 -16 -16 -16 -16 -16 -16 -16 -16 -15 -15 -15 -16 -16 -16 -16 -16 -16
-15 -15 -15 -15 -15 -15 -15 -15 -15 -15 -15 -15 -15 -15 -15 -15 -15 -14 -14 -14 -14 -15 -15 -15 -16 -16 -16 -16 -16 -16 -16 -16 -16 -16 -16 -16 -16 -16 -16 -16 -16 -16
-15 -15 -15 -15 -15 -15 -15 -15 -15 -15 -15 -15 -15 -15 -15 -15 -15 -15 -15 -15 -15 -15 -15 -15 -15 -16 -16 -16 -17 -17 -17 -17 -16 -16 -16 -16 -16 -16 -16 -16 -16 -16
-15 -15 -15 -15 -15 -15 -15 -15 -15 -15 -15 -15 -16 -16 -16 -15 -15 -15 -15 -15 -15 -15 -15 -15 -15 -16 -16 -16 -17 -17 -17 -17 -17 -17 -17 -17 -17 -16 -17 -17 -17 -17
-15 -15 -15 -15 -15 -16 -15 -15 -16 -16 -16 -15 -16 -16 -16 -16 -16 -15 -15 -15 -15 -15 -16 -16 -16 -16 -16 -16 -17 -17 -17 -17 -17 -17 -17 -17 -17 -17 -17 -17 -17 -17
-15 -15 -15 -15 -15 -15 -15 -16 -16 -16 -16 -16 -16 -16 -16 -16 -16 -16 -15 -16 -16 -16 -16 -16 -16 -16 -16 -17 -17 -17 -17 -17 -17 -17 -17 -17 -17 -17 -17 -17 -17 -17
-15 -15 -16 -16 -16 -15 -15 -16 -16 -16 -16 -16 -16 -16 -16 -16 -16 -16 -16 -16 -16 -16 -16 -16 -17 -17 -17 -17 -17 -17 -17 -17 -17 -17 -17 -17 -17 -17 -17 -17 -17 -17
-15 -16 -16 -16 -16 -16 -15 -15 -16 -16 -16 -16 -16 -17 -17 -17 -16 -16 -16 -17 -17 -17 -17 -17 -17 -17 -17 -17 -17 -17 -17 -17 -17 -17 -17 -17 -17 -17 -17 -17 -18 -18
-16 -16 -16 -16 -16 -16 -16 -16 -16 -16 -16 -16 -17 -17 -17 -17 -17 -17 -17 -17 -17 -17 -17 -17 -17 -17 -17 -17 -17 -17 -17 -18 -18 -18 -18 -18 -18 -18 -18 -17 -17 -17
-16 -16 -16 -16 -16 -16 -16 -16 -16 -16 -16 -17 -17 -17 -17 -17 -17 -17 -17 -17 -17 -17 -17 -17 -17 -17 -17 -18 -18 -18 -18 -18 -18 -18 -18 -18 -18 -18 -17 -17 -18 -18
-16 -16 -16 -17 -17 -17 -17 -17 -17 -17 -17 -17 -18 -17 -17 -17 -17 -17 -17 -17 -17 -17 -17 -17 -17 -17 -18 -18 -18 -18 -18 -18 -18 -18 -18 -18 -18 -17 -17 -18 -18 -18
-16 -16 -16 -17 -17 -17 -17 -17 -17 -17 -17 -18 -18 -18 -17 -17 -17 -17 -17 -17 -17 -17 -18 -18 -17 -18 -18 -18 -18 -18 -18 -18 -18 -18 -18 -17 -17 -17 -17 -18 -18 -18
-16 -16 -16 -17 -17 -17 -17 -18 -17 -17 -17 -17 -18 -17 -17 -17 -17 -17 -17 -17 -17 -18 -18 -18 -18 -18 -18 -18 -18 -18 -18 -18 -18 -18 -17 -17 -17 -17 -17 -17 -17 -17
-16 -16 -16 -17 -17 -17 -17 -17 -17 -17 -17 -17 -17 -17 -17 -17 -17 -18 -18 -18 -18 -18 -18 -18 -18 -18 -18 -18 -18 -18 -18 -18 -18 -18 -17 -17 -17 -17 -17 -17 -17 -17
-17 -17 -17 -17 -17 -17 -17 -17 -17 -17 -17 -17 -17 -17 -17 -18 -18 -18 -18 -18 -18 -18 -18 -18 -18 -18 -18 -18 -18 -18 -18 -18 -18 -18 -18 -17 -17 -17 -17 -17 -17 -17
-18 -17 -17 -17 -17 -17 -17 -17 -17 -17 -17 -17 -17 -17 -18 -18 -18 -18 -18 -18 -18 -18 -18 -18 -18 -18 -18 -18 -18 -18 -18 -18 -18 -18 -18 -18 -17 -17 -17 -17 -17 -17
-17 -17 -17 -17 -17 -17 -17 -17 -17 -17 -17 -18 -18 -18 -18 -18 -18 -18 -18 -18 -18 -18 -18 -18 -18 -18 -18 -18 -18 -18 -18 -18 -18 -18 -18 -17 -17 -17 -17 -17 -17 -17
-17 -17 -17 -17 -17 -17 -17 -17 -17 -18 -18 -18 -18 -18 -18 -18 -18 -18 -18 -18 -18 -18 -18 -18 -18 -18 -18 -18 -18 -18 -18 -18 -18 -18 -18 -18 -17 -17 -17 -18 -17 -17
-18 -18 -18 -18 -18 -18 -18 -18 -18 -18 -18 -18 -18 -18 -18 -18 -19 -19 -19 -19 -19 -19 -19 -19 -19 -19 -19 -19 -18 -18 -18 -18 -18 -18 -18 -18 -18 -18 -18 -18 -18 -18
-18 -18 -18 -18 -18 -18 -18 -18 -18 -18 -19 -19 -19 -19 -19 -19 -19 -19 -19 -19 -19 -19 -19 -19 -19 -19 -19 -19 -19 -19 -19 -19 -19 -19 -18 -18 -18 -18 -18 -18 -18 -18
-19 -19 -19 -19 -19 -19 -19 -19 -19 -19 -19 -19 -19 -19 -19 -19 -19 -19 -19 -19 -19 -19 -19 -19 -19 -19 -19 -19 -19 -19 -19 -19 -19 -19 -19 -19 -19 -19 -19 -19 -19 -19
-19 -19 -19 -19 -19 -19 -19 -19 -19 -19 -19 -19 -19 -19 -19 -19 -19 -19 -19 -19 -19 -19 -19 -19 -19 -19 -19 -19 -19 -19 -19 -19 -19 -18 -18 -19 -19 -19 -19 -19 -19 -19
Height
5777 5778 5778 5778 5778 5777 5777 5778 5779 5780 5780 5781 5781 5782 5782 5782 5782 5781 5781 5781 5781 5781 5782 5782 5782 5782 5782 5782 5782 5783 5783 5784 5785 5785 5786 5786 5787 5787 5787 5787 5787 5787
5775 5776 5776 5776 5775 5775 5775 5776 5777 5778 5778 5779 5779 5779 5780 5780 5780 5779 5779 5779 5779 5779 5779 5779 5780 5780 5780 5780 5780 5781 5781 5782 5783 5783 5783 5784 5784 5784 5784 5784 5784 5784
5773 5773 5774 5774 5773 5773 5773 5773 5774 5775 5775 5776 5777 5777 5778 5778 5778 5777 5777 5777 5777 5777 5777 5777 5777 5778 5778 5778 5779 5779 5779 5780 5780 5781 5781 5781 5781 5781 5781 5781 5781 5781
5770 5770 5771 5771 5771 5771 5770 5771 5772 5772 5773 5773 5774 5775 5775 5775 5775 5775 5775 5775 5775 5775 5775 5775 5775 5776 5776 5777 5777 5777 5777 5778 5778 5778 5778 5778 5778 5778 5779 5779 5779 5779
5768 5768 5768 5768 5768 5768 5768 5768 5769 5770 5770 5770 5771 5772 5773 5773 5773 5774 5774 5774 5773 5773 5773 5773 5773 5774 5774 5775 5775 5776 5776 5776 5776 5776 5776 5776 5776 5776 5776 5776 5777 5777
5765 5765 5765 5764 5764 5764 5764 5765 5766 5767 5768 5768 5768 5769 5770 5771 5771 5771 5772 5772 5772 5772 5772 5772 5772 5772 5772 5773 5773 5774 5774 5774 5774 5774 5774 5774 5773 5773 5773 5774 5774 5775
5761 5760 5760 5760 5760 5760 5760 5761 5762 5764 5765 5765 5766 5766 5767 5768 5768 5769 5769 5770 5770 5770 5770 5770 5770 5770 5770 5771 5771 5771 5772 5772 5772 5772 5772 5772 5771 5771 5771 5771 5772 5772
5756 5755 5755 5755 5755 5756 5757 5757 5758 5760 5762 5763 5764 5764 5764 5765 5766 5766 5767 5768 5768 5768 5768 5768 5768 5768 5768 5768 5768 5769 5769 5769 5770 5770 5770 5770 5769 5769 5769 5769 5769 5769
5752 5751 5750 5751 5751 5752 5753 5754 5755 5757 5758 5760 5761 5762 5762 5763 5764 5764 5765 5765 5765 5765 5766 5766 5766 5766 5766 5766 5766 5766 5767 5767 5767 5768 5768 5767 5767 5767 5767 5767 5767 5767
5750 5749 5748 5749 5750 5750 5751 5751 5753 5754 5756 5757 5758 5759 5760 5761 5762 5762 5763 5763 5763 5763 5764 5764 5764 5764 5764 5764 5764 5764 5765 5765 5765 5765 5765 5765 5765 5765 5765 5765 5765 5765
5749 5748 5747 5748 5749 5749 5749 5749 5751 5752 5753 5755 5756 5757 5758 5759 5760 5760 5760 5761 5761 5761 5762 5762 5762 5762 5763 5763 5763 5762 5762 5763 5763 5763 5763 5762 5762 5762 5762 5763 5763 5763
5746 5745 5745 5746 5747 5747 5747 5748 5748 5750 5751 5752 5753 5754 5755 5756 5757 5758 5758 5759 5759 5759 5760 5760 5760 5761 5761 5761 5761 5761 5761 5761 5761 5761 5760 5760 5760 5761 5761 5761 5761 5761
5743 5742 5743 5745 5745 5745 5745 5746 5746 5747 5748 5749 5750 5751 5752 5753 5754 5755 5755 5756 5757 5757 5758 5758 5758 5759 5759 5759 5759 5759 5759 5759 5759 5759 5759 5759 5759 5759 5759 5759 5760 5760
5740 5740 5741 5742 5742 5742 5742 5743 5743 5744 5745 5746 5747 5748 5750 5751 5751 5752 5753 5754 5754 5755 5755 5756 5756 5757 5757 5757 5757 5757 5757 5757 5757 5757 5757 5757 5757 5757 5758 5758 5759 5759
5737 5738 5738 5739 5740 5740 5740 5740 5740 5741 5742 5743 5744 5746 5747 5748 5749 5750 5751 5751 5752 5752 5753 5754 5754 5754 5754 5754 5755 5754 5754 5754 5754 5754 5755 5754 5755 5756 5757 5757 5757 5757
5736 5736 5735 5736 5737 5737 5737 5738 5739 5740 5740 5741 5742 5743 5744 5745 5746 5747 5748 5748 5749 5750 5751 5751 5751 5752 5751 5752 5752 5751 5751 5751 5751 5751 5751 5752 5753 5754 5754 5754 5754 5753
5733 5734 5734 5734 5734 5734 5735 5737 5737 5737 5738 5739 5740 5740 5741 5743 5743 5744 5745 5745 5746 5747 5748 5748 5749 5748 5748 5748 5748 5748 5748 5748 5748 5748 5748 5748 5750 5751 5750 5750 5750 5749
5732 5732 5732 5732 5733 5733 5734 5735 5734 5734 5735 5736 5737 5737 5738 5739 5740 5741 5741 5742 5742 5743 5744 5745 5745 5745 5745 5745 5745 5745 5745 5745 5745 5744 5744 5745 5746 5746 5746 5747 5746 5745
5730 5731 5731 5731 5732 5733 5733 5733 5732 5731 5732 5733 5733 5734 5735 5735 5736 5737 5738 5738 5739 5739 5740 5741 5741 5741 5741 5741 5742 5742 5742 5742 5742 5741 5741 5741 5742 5741 5742 5742 5742 5742
5726 5727 5728 5728 5729 5730 5730 5730 5729 5729 5729 5730 5730 5731 5731 5732 5732 5733 5734 5734 5735 5736 5736 5736 5737 5737 5737 5738 5738 5739 5739 5738 5738 5737 5737 5738 5738 5737 5737 5737 5738 5738
5721 5722 5723 5724 5724 5725 5725 5725 5725 5725 5725 5726 5726 5727 5727 5728 5728 5728 5729 5730 5731 5732 5732 5732 5733 5733 5733 5734 5734 5734 5734 5734 5733 5733 5733 5733 5733 5733 5733 5733 5733 5734
5717 5718 5719 5719 5720 5721 5721 5720 5720 5721 5721 5721 5722 5722 5722 5722 5723 5723 5724 5725 5726 5727 5727 5728 5728 5729 5729 5729 5729 5729 5729 5729 5728 5728 5728 5728 5729 5729 5729 5729 5729 5729
5713 5713 5714 5714 5715 5715 5716 5715 5716 5716 5716 5716 5716 5716 5716 5717 5717 5718 5718 5719 5720 5721 5722 5723 5723 5724 5724 5724 5723 5723 5723 5723 5723 5723 5723 5723 5723 5724 5724 5724 5724 5723
5707 5707 5708 5708 5709 5709 5709 5710 5710 5710 5711 5711 5711 5711 5711 5712 5712 5712 5713 5714 5715 5715 5716 5716 5717 5716 5716 5716 5716 5716 5717 5717 5717 5717 5717 5717 5717 5717 5717 5717 5716 5716
5700 5701 5702 5702 5703 5703 5703 5704 5704 5704 5704 5704 5705 5705 5705 5706 5706 5706 5706 5707 5708 5709 5709 5709 5709 5709 5709 5709 5709 5710 5710 5711 5711 5711 5712 5711 5710 5711 5711 5710 5709 5708
5694 5695 5696 5696 5696 5697 5697 5697 5697 5697 5697 5697 5697 5697 5697 5698 5698 5698 5698 5699 5700 5701 5702 5702 5703 5703 5703 5703 5703 5703 5704 5704 5704 5705 5705 5704 5704 5704 5705 5704 5703 5702
Wind_Speed
11 12 14 14 14 16 17 17 15 13 12 11 11 11 11 11 11 11 11 11 11 10 10 9 9 8 8 8 9 9 9 9 8 8 7 7 7 7 8 9 10 12
12 13 13 14 16 18 19 17 16 14 13 12 12 11 11 11 11 10 10 9 9 9 8 7 7 6 6 6 6 7 7 8 8 7 7 7 7 7 7 7 9 10
15 13 11 12 15 19 21 20 17 16 15 14 13 12 11 12 13 12 10 10 9 9 7 6 5 5 4 5 5 6 7 7 7 7 6 6 6 6 6 7 8 9
16 15 14 14 15 18 22 22 19 16 16 16 15 14 13 14 15 14 12 11 11 10 8 6 5 5 5 5 5 5 6 6 6 6 6 5 5 6 6 7 8 8
16 16 16 18 18 17 20 23 21 17 15 15 15 15 15 15 16 16 14 13 12 11 10 8 7 6 6 6 6 6 6 6 6 6 6 6 6 7 7 7 7 7
15 17 18 19 19 18 18 21 23 20 17 15 15 16 17 18 18 18 17 15 14 13 12 11 10 9 8 7 7 7 8 8 8 7 7 7 6 7 7 7 7 7
11 14 18 19 19 18 18 19 22 23 22 20 17 17 18 19 19 19 17 16 15 14 14 13 13 11 11 10 9 9 8 8 8 7 7 7 6 7 7 7 7 7
12 13 16 18 18 19 19 19 20 23 24 23 20 18 18 18 19 18 17 16 16 15 15 15 14 14 13 12 11 10 9 8 8 7 7 7 7 7 7 7 7 8
18 16 17 18 18 19 20 20 20 21 22 23 21 19 18 17 17 17 17 17 16 16 15 15 15 14 14 13 12 10 9 9 9 9 9 9 9 9 9 9 9 9
23 21 19 18 18 19 19 19 19 20 21 22 20 19 18 18 18 18 18 17 16 16 15 14 14 14 14 14 13 11 10 11 11 11 11 11 11 11 11 11 11 11
21 22 21 18 16 16 17 17 18 19 20 21 21 20 20 20 20 20 19 18 17 16 16 15 15 14 14 13 13 12 11 12 12 12 12 12 12 12 12 12 11 10
20 22 21 17 13 12 13 14 16 19 21 23 24 23 22 22 21 20 19 18 17 18 17 17 16 14 13 13 12 12 11 11 12 12 13 13 14 14 14 13 12 11
20 21 19 17 14 13 14 15 16 18 21 23 23 24 24 23 22 20 19 18 18 19 18 17 16 14 12 12 11 10 10 10 11 12 13 14 15 15 15 15 15 15
17 18 17 16 16 15 16 17 17 17 19 20 21 22 23 23 22 21 20 20 20 20 19 18 16 14 13 12 11 11 11 11 12 14 14 15 16 16 16 17 17 19
16 16 15 15 15 15 16 17 17 17 18 20 21 22 22 22 21 21 21 22 21 21 19 19 17 15 14 14 14 15 15 16 16 17 18 19 19 19 19 18 19 21
15 16 16 16 15 14 13 15 18 19 20 20 21 21 21 22 21 21 22 23 23 23 21 21 20 19 18 17 17 18 19 20 21 22 23 24 24 24 23 23 23 25
15 16 15 15 14 13 13 12 15 19 19 19 20 20 21 22 22 22 22 21 22 23 23 23 23 22 22 21 21 22 23 24 25 26 27 28 28 28 29 29 29 31
17 17 16 16 15 15 15 14 15 18 18 17 19 20 21 22 23 23 22 21 20 21 22 22 22 23 23 24 24 25 26 27 28 29 30 30 30 31 32 33 34 35
19 20 22 22 21 20 21 22 23 23 21 20 21 22 23 24 24 24 25 23 22 23 23 23 24 24 25 26 27 28 29 30 31 31 32 32 33 34 35 36 37 37
22 23 24 25 25 26 27 28 28 26 25 24 25 25 26 27 27 27 27 26 26 26 26 26 27 27 28 29 30 31 32 33 33 34 34 35 36 37 38 39 39 39
27 28 28 29 29 30 30 30 30 29 28 28 28 29 30 31 31 31 30 29 28 28 29 30 30 30 31 32 33 33 34 35 36 37 37 37 37 37 39 41 41 41
31 31 32 32 33 33 33 33 33 33 32 32 32 33 35 36 36 35 34 33 32 31 32 32 32 33 34 35 36 36 38 39 40 40 40 39 38 38 39 41 43 44
33 33 34 35 35 35 35 35 35 35 35 36 36 38 38 39 39 39 38 37 35 34 34 35 35 36 37 38 39 40 41 42 42 42 42 41 41 42 43 44 45 46
36 36 36 36 37 37 37 37 37 37 37 38 39 41 42 43 43 44 44 43 41 39 39 39 38 39 40 40 41 42 42 42 43 43 44 45 46 47 48 47 47 48
38 38 38 38 39 39 39 40 40 40 40 41 42 43 44 45 47 48 49 49 48 47 47 45 43 42 42 41 41 42 43 44 44 46 48 50 51 52 51 50 49 51
41 41 41 41 42 42 42 43 43 43 43 44 44 45 45 46 47 48 49 50 50 50 51 50 49 48 46 45 44 46 47 48 50 52 54 56 55 54 53 53 52 53
Wind_Direction
250 258 259 255 251 248 244 242 238 235 236 243 248 253 258 259 257 255 252 248 242 239 241 245 247 246 244 243 247 253 259 261 262 263 264 266 268 271 275 278 277 275
254 263 262 259 256 252 247 241 236 235 238 244 249 255 260 255 252 255 254 251 248 246 248 253 254 252 247 245 247 249 252 254 256 257 259 261 264 269 274 278 277 275
253 257 260 267 269 262 255 246 238 238 241 247 250 252 255 252 250 256 260 259 258 257 257 260 259 258 254 251 251 252 253 255 256 257 259 262 266 270 273 275 273 272
248 246 252 268 277 272 264 253 244 240 241 246 252 254 255 253 251 255 261 262 263 265 266 266 263 259 254 250 250 252 252 251 252 252 254 259 267 273 275 274 273 269
256 253 258 268 274 274 268 257 248 243 242 246 253 256 255 254 254 256 260 261 263 267 270 269 264 256 249 246 247 250 252 253 253 253 252 255 262 269 274 275 276 275
269 264 265 270 272 270 268 259 250 247 249 256 260 258 255 253 254 255 258 262 264 268 271 270 266 259 251 247 246 250 255 258 260 260 258 260 263 267 271 276 279 282
277 267 260 266 268 263 263 260 252 249 253 261 264 262 256 253 252 253 256 261 264 268 271 271 267 261 253 249 248 251 257 260 261 261 260 259 260 263 268 274 280 285
268 268 255 257 261 258 260 259 250 246 251 257 262 264 260 253 250 252 255 258 262 265 268 268 266 263 257 252 251 254 257 257 257 258 259 260 262 266 272 278 282 287
253 264 257 251 255 256 258 257 247 242 245 251 257 262 260 255 252 253 255 256 259 262 264 265 265 265 262 258 256 255 255 255 257 260 262 264 267 272 276 279 281 284
246 260 261 256 260 260 260 256 245 240 242 247 255 259 258 256 255 255 254 255 259 261 262 263 264 265 265 264 261 259 259 263 266 268 270 271 274 278 280 280 280 283
251 262 266 265 266 264 260 253 243 241 243 247 253 258 257 255 255 254 254 256 259 260 262 263 263 265 267 268 267 267 269 272 274 277 280 281 282 284 285 284 284 287
260 262 263 263 264 265 259 251 244 244 247 251 254 255 254 252 251 252 255 260 263 263 264 265 266 267 271 272 271 271 272 275 279 283 287 289 289 289 289 287 288 293
258 254 256 254 257 262 253 246 249 250 251 255 255 252 251 251 250 251 256 263 267 268 268 269 269 270 271 267 263 264 267 272 279 284 288 291 291 291 290 289 292 297
251 247 254 252 253 256 245 239 245 247 247 250 249 247 247 249 251 253 256 260 264 267 267 267 267 267 263 256 251 253 259 265 273 279 284 286 287 288 290 292 295 296
244 249 265 264 261 261 249 239 243 245 243 242 242 243 245 247 252 256 259 261 262 263 264 264 265 263 257 251 249 252 256 260 266 272 276 278 280 283 287 289 288 286
236 255 272 267 262 265 255 245 245 243 239 237 240 245 248 250 255 259 263 264 261 260 262 264 265 262 258 255 255 256 258 261 264 268 271 273 275 278 281 282 282 281
248 263 265 254 257 266 264 252 239 234 235 236 240 245 248 251 254 257 261 263 260 257 259 262 264 263 263 263 263 263 264 266 267 269 271 272 274 277 280 281 281 282
265 264 257 257 265 267 258 250 243 243 246 244 243 247 249 250 251 252 255 258 258 257 257 258 262 265 268 269 269 270 271 271 272 273 274 275 277 279 280 281 281 282
269 263 260 266 270 262 254 254 257 260 259 254 253 255 254 253 252 251 252 254 257 258 258 257 259 263 267 268 270 271 272 274 275 275 276 278 280 281 281 280 280 282
261 259 259 261 262 261 260 261 263 264 262 259 261 261 259 258 257 255 255 255 256 257 258 258 260 264 266 267 269 270 272 273 274 275 276 278 280 281 281 281 281 282
254 255 255 256 258 260 262 263 263 263 262 261 262 263 263 263 261 259 259 259 258 256 254 256 260 263 266 268 269 270 272 273 273 274 276 278 279 280 281 282 282 282
262 262 262 261 261 262 263 263 263 263 263 263 263 263 263 263 262 262 261 261 261 259 255 255 257 260 264 267 267 269 270 271 271 273 274 274 275 277 280 281 281 279
268 267 266 264 264 263 262 261 262 262 263 264 264 263 264 264 264 264 262 262 262 261 259 258 259 262 264 265 266 267 269 270 271 272 272 272 273 276 279 281 278 274
270 269 267 266 264 262 259 259 259 260 261 261 261 261 261 261 262 262 262 262 262 262 262 264 267 270 269 268 268 269 270 270 271 271 272 274 275 277 280 280 276 274
268 268 268 267 265 262 261 261 261 262 262 261 260 259 259 258 258 258 259 261 261 262 263 265 269 273 271 268 269 270 270 270 270 271 273 274 276 278 280 280 278 279
265 266 267 266 265 263 263 264 264 264 265 263 262 262 261 260 258 256 257 258 259 260 260 261 265 269 266 264 266 270 271 271 271 272 273 275 276 278 279 279 280 281